Location: Les Chemineaux
(47.3024°N, 1.5104°E)
Time: 15:29:19
(UTC+00:00)

Cosmos 1782 - Pass Details

Date: 19 May 2025
Orbit: 478 x 490 km, 82.5° (Epoch: 17 June)

Event Time Altitude Azimuth Distance (km) Brightness Sun altitude
Rises 20:19:37 0° 196° (SSW) 2,558 6.0 -7.8°
Reaches altitude 10° 20:21:45 10° 201° (SSW) 1,680 5.1 -8.0°
Maximum altitude 20:25:23 59° 281° (W) 572 3.2 -8.5°
Drops below altitude 10° 20:29:02 10° 2° (N) 1,688 5.9 -9.0°
Sets 20:31:10 0° 6° (N) 2,572 6.8 -9.2°
